Leuven Template:n sääsivut:

Template documentation
and downloads

And another site



Metsäpalovaroitus Alkaa: 24-04-2019 10:18 Loppuu: 25-04-2019 09:00 varoitus: Metsäpalovaroitus Taso: Keltainen info button

Select another period ( hide this area )

Yksiköt Aika Custom range Directly to
Metriset Englantilaiset Molemmat
Päivittäin Viikoittain Kuukausittain Vuosittain
use both date-selectors for a custom range
previous Päivä
With this date

WeatherUnderground graphs for this period ( click here )


Päivittäin yhteenveto Keskiviikko 24 Huhtikuu 2019
Aika Temp. ( °C ) Dew pt. ( °C ) Tuuli ( km/h ) Alkaa Puuska ( km/h ) Ilmanpaine ( hPa ) Humid.( % ) Rainrate ( cm ) Aurinkoenergia ( W/m2 )
Ylin19,1 5,9 15,3 Länsilounas ( 113/252 ) 9,5 1029,2 92 - 621
Keskiarvo7,8 2,2 1,8 Tyyntä #104/142 0,8 1028,4 72 - 285 #75/142
Alin1,4 0,0 -   0,0 1027,1 30 -  
Päivittäin Tabular details for Keskiviikko 24 Huhtikuu 2019
Aika Temp. ( °C ) Dew pt. ( °C ) Tuuli ( km/h ) Alkaa Puuska ( km/h ) Ilmanpaine ( hPa ) Humid.( % ) Rainrate ( cm ) Aurinkoenergia ( W/m2 )
00:03 8,3 3,2 1,9 Länsilounas   1027,1 70 - -
00:09 8,3 3,2   Tyyntä   1027,2 70 - -
00:13 8,3 3,2   Tyyntä   1027,2 70 - -
00:19 8,4 3,2 3,7 Länsilounas 0,3 1027,2 70 - -
00:23 8,4 3,2   Tyyntä   1027,3 70 - -
00:28 8,4 3,2 1,6 Länsilounas 0,5 1027,3 70 - -
00:34 8,3 3,0 1,9 Länsilounas   1027,4 69 - -
00:38 8,4 3,0   Tyyntä   1027,4 69 - -
00:44 8,4 3,1   Tyyntä   1027,4 69 - -
00:49 8,5 3,1   Tyyntä   1027,4 69 - -
00:53 8,4 3,1   Tyyntä   1027,4 69 - -
00:59 8,4 2,9   Tyyntä   1027,4 68 - -
01:03 8,4 2,8   Tyyntä   1027,4 68 - -
01:09 8,3 2,9   Tyyntä   1027,4 69 - -
01:14 8,2 2,9   Tyyntä   1027,5 69 - -
01:18 8,1 2,9   Tyyntä   1027,5 70 - -
01:24 7,8 2,9   Tyyntä   1027,5 71 - -
01:29 7,7 2,7   Tyyntä   1027,6 71 - -
01:33 7,5 2,8   Tyyntä   1027,5 72 - -
01:38 7,3 2,6   Tyyntä   1027,6 72 - -
01:43 7,1 2,4   Tyyntä   1027,7 72 - -
01:48 7,0 2,5   Tyyntä   1027,7 73 - -
01:53 6,8 2,5   Tyyntä   1027,7 74 - -
01:59 6,8 2,4   Tyyntä   1027,7 74 - -
02:03 6,7 2,6   Tyyntä   1027,7 75 - -
02:08 6,6 2,4   Tyyntä   1027,8 75 - -
02:13 6,5 2,6   Tyyntä   1027,8 76 - -
02:18 6,3 2,6   Tyyntä   1027,9 77 - -
02:24 6,2 2,4   Tyyntä   1027,8 77 - -
02:28 6,1 2,5   Tyyntä   1027,8 78 - -
02:33 5,9 2,4   Tyyntä   1027,8 78 - -
02:39 5,8 2,3   Tyyntä   1027,8 78 - -
02:43 5,8 2,2   Tyyntä   1027,8 78 - -
02:49 5,7 2,3   Tyyntä   1027,8 79 - -
02:54 5,5 2,2   Tyyntä   1027,8 79 - -
02:58 5,4 2,1   Tyyntä   1027,9 79 - -
03:04 5,2 2,0   Tyyntä   1027,9 80 - -
03:08 5,0 1,8   Tyyntä   1027,9 80 - -
03:14 4,8 1,8   Tyyntä   1027,9 81 - -
03:19 4,6 1,6   Tyyntä   1027,9 81 - -
03:23 4,4 1,6   Tyyntä   1027,9 82 - -
03:29 4,3 1,5   Tyyntä   1027,9 82 - -
03:34 4,1 1,5   Tyyntä   1027,9 83 - -
03:39 4,0 1,6   Tyyntä   1027,9 84 - -
03:44 3,8 1,4   Tyyntä   1028,0 84 - -
03:49 3,8 1,3   Tyyntä   1028,1 84 - -
03:53 3,7 1,3   Tyyntä   1028,0 84 - -
03:58 3,6 1,3   Tyyntä   1028,1 85 - -
04:03 3,4 1,2   Tyyntä   1028,1 85 - -
04:08 3,3 0,8   Tyyntä   1028,1 84 - -
04:14 3,2 0,9   Tyyntä   1028,2 85 - -
04:18 3,1 0,9   Tyyntä   1028,2 86 - -
04:23 3,0 0,9   Tyyntä   1028,2 86 - -
04:29 2,9 1,0   Tyyntä   1028,1 87 - -
04:33 2,9 0,9   Tyyntä   1028,1 87 - -
04:38 2,8 0,8   Tyyntä   1028,1 87 - -
04:43 2,7 0,8   Tyyntä   1028,2 87 - -
04:48 2,6 0,7   Tyyntä   1028,2 87 - -
04:54 2,4 0,5   Tyyntä   1028,3 87 - -
04:58 2,3 0,4   Tyyntä   1028,3 87 - -
05:04 2,2 0,4   Tyyntä   1028,3 88 - -
05:09 2,1 0,3   Tyyntä   1028,4 88 - -
05:13 2,1 0,3   Tyyntä   1028,5 88 - -
05:19 1,9 0,2   Tyyntä   1028,4 88 - -
05:23 1,9 0,3   Tyyntä   1028,4 89 - -
05:29 1,8 0,2   Tyyntä   1028,5 89 - -
05:34 1,7 0,1   Tyyntä   1028,5 89 - -
05:38 1,7 0,1   Tyyntä   1028,6 89 - 7
05:44 1,6 0,0   Tyyntä   1028,6 89 - 9
05:49 1,6 0,2   Tyyntä   1028,6 90 - 11
05:54 1,6 0,2   Tyyntä   1028,6 90 - 12
05:59 1,6 0,2   Tyyntä   1028,6 90 - 16
06:03 1,7 0,2   Tyyntä   1028,7 90 - 18
06:09 1,6 0,2   Tyyntä   1028,6 90 - 18
06:13 1,6 0,1   Tyyntä   1028,6 90 - 19
06:18 1,5 0,1   Tyyntä   1028,7 90 - 23
06:23 1,5 0,1   Tyyntä   1028,7 90 - 23
06:28 1,4 0,0   Tyyntä   1028,7 90 - 26
06:33 1,4 0,0   Tyyntä   1028,8 90 - 28
06:38 1,5 0,2   Tyyntä   1028,8 91 - 30
06:43 1,6 0,2   Tyyntä   1028,8 91 - 32
06:48 1,6 0,2   Tyyntä   1028,8 91 - 37
06:54 1,7 0,3   Tyyntä   1028,8 91 - 42
06:58 1,8 0,7   Tyyntä   1028,8 92 - 46
07:04 2,1 0,9   Tyyntä   1028,9 92 - 46
07:08 2,2 1,1   Tyyntä   1028,9 92 - 53
07:13 2,4 1,2   Tyyntä   1028,9 92 - 67
07:19 2,7 1,5   Tyyntä   1029,0 92 - 70
07:23 2,9 1,8   Tyyntä   1028,9 92 - 118
07:29 3,3 2,2   Tyyntä   1028,9 92 - 118
07:34 3,8 2,6   Tyyntä   1028,9 92 - 134
07:38 4,1 2,8   Tyyntä   1028,9 91 - 135
07:44 4,7 3,2   Tyyntä   1028,9 90 - 142
07:48 5,1 3,4   Tyyntä   1028,9 89 - 95
07:54 5,6 3,6   Tyyntä   1028,9 87 - 167
07:59 6,1 3,9   Tyyntä   1029,0 86 - 121
08:04 6,6 4,2   Tyyntä   1029,0 85 - 153
08:09 7,1 4,7   Tyyntä   1029,0 85 - 216
08:13 7,4 4,8   Tyyntä   1029,0 84 - 190
08:19 7,8 5,1   Tyyntä   1029,0 83 - 149
08:24 8,4 5,3   Tyyntä   1029,0 81 - 204
08:29 8,9 5,6   Tyyntä   1029,0 80 - 276
08:33 9,4 5,7   Tyyntä   1029,0 78 - 264
08:38 10,2 5,6   Tyyntä   1029,0 73 - 260
08:43 10,8 5,7   Tyyntä   1029,0 71 - 287
08:48 11,3 5,8   Tyyntä   1029,0 69 - 320
08:54 11,8 5,9 3,7 Länsilounas 1,9 1029,0 67 - 304
08:58 12,2 5,3   Tyyntä   1029,0 63 - 323
09:04 12,7 5,3 1,9 Länsilounas 0,6 1029,0 61 - 338
09:08 12,9 5,6   Tyyntä   1029,1 61 - 341
09:13 13,4 5,6 1,9 Länsilounas 1,0 1029,0 59 - 357
09:19 13,7 5,3 3,7 Länsilounas 1,1 1029,0 57 - 387
09:23 13,9 4,7 3,7 Länsilounas 1,9 1029,0 54 - 390
09:29 14,1 4,1 5,6 Länsilounas 1,9 1029,1 51 - 390
09:33 14,2 4,2 3,7 Länsilounas 1,4 1029,0 51 - 397
09:38 14,6 3,9 6,8 Länsilounas 1,8 1029,0 49 - 418
09:44 14,9 3,4 3,4 Länsilounas 1,1 1029,0 46 - 388
09:48 15,2 3,7 7,4 Länsilounas 3,4 1029,0 46 - 418
09:54 15,6 3,1 1,9 Länsilounas 0,2 1029,0 43 - 441
09:59 16,0 3,7 7,4 Länsilounas 1,6 1029,1 44 - 471
10:03 16,3 4,0 1,9 Länsilounas 0,2 1029,1 44 - 445
10:09 16,6 2,9 5,6 Länsilounas 3,5 1029,1 40 - 436
10:13 16,7 3,3 7,4 Länsilounas 0,8 1029,1 41 - 457
10:19 17,0 3,3 3,4 Länsilounas 1,0 1029,1 40 - 510
10:24 17,4 2,6 1,9 Länsilounas 0,6 1029,1 37 - 522
10:28 17,8 1,7 10,1 Etelä 5,0 1029,1 34 - 510
10:34 17,7 1,7 5,1 Länsi 1,8 1029,1 34 - 506
10:39 17,6 1,5 10,1 Lounas 7,1 1029,2 34 - 538
10:44 17,6 1,5 11,9 Lounas 7,2 1029,1 34 - 519
10:48 17,6 1,9 9,3 Lounas 3,5 1029,1 35 - 531
10:52 17,7 1,7 7,4 Etelälounas 4,2 1029,2 34 - 554
10:58 18,0 1,4 9,3 Etelälounas 1,6 1029,1 33 - 578
11:03 18,1 1,6 11,9 Lounas 9,5 1029,1 33 - 577
11:08 18,0 1,9 10,1 Etelälounas 4,7 1029,1 34 - 554
11:13 18,1 1,6 6,8 Länsilounas 3,9 1029,1 33 - 587
11:19 18,3 1,3 10,1 Etelälounas 3,7 1029,1 32 - 573
11:23 18,6 1,9 7,4 Lounas 2,9 1029,1 33 - 591
11:28 18,8 0,8 10,1 Etelälounas 4,8 1029,1 30 - 594
11:33 18,7 1,2 10,1 Länsilounas 3,1 1029,1 31 - 612
11:38 18,8 0,9 13,0 Etelälounas 5,6 1029,1 30 - 606
11:44 18,9 0,9 15,3 Länsilounas 8,8 1029,0 30 - 621
11:48 19,1 1,1 13,5 Lounas 6,9 1029,0 30 - 610
Päivittäin yhteenveto Keskiviikko 24 Huhtikuu 2019
Aika Temp. ( °C ) Dew pt. ( °C ) Tuuli ( km/h ) Alkaa Puuska ( km/h ) Ilmanpaine ( hPa ) Humid.( % ) Rainrate ( cm ) Aurinkoenergia ( W/m2 )
Ylin19,1 5,9 15,3 Länsilounas ( 113/252 ) 9,5 1029,2 92 - 621
Keskiarvo7,8 2,2 1,8 Tyyntä #104/142 0,8 1028,4 72 - 285 #75/142
Alin1,4 0,0 -   0,0 1027,1 30 -  
Päivittäin Tabular details for Keskiviikko 24 Huhtikuu 2019
Aika Temp. ( °C ) Dew pt. ( °C ) Tuuli ( km/h ) Alkaa Puuska ( km/h ) Ilmanpaine ( hPa ) Humid.( % ) Rainrate ( cm ) Aurinkoenergia ( W/m2 )
00:03 8,3 3,2 1,9 Länsilounas   1027,1 70 - -
00:09 8,3 3,2   Tyyntä   1027,2 70 - -
00:13 8,3 3,2   Tyyntä   1027,2 70 - -
00:19 8,4 3,2 3,7 Länsilounas 0,3 1027,2 70 - -
00:23 8,4 3,2   Tyyntä   1027,3 70 - -
00:28 8,4 3,2 1,6 Länsilounas 0,5 1027,3 70 - -
00:34 8,3 3,0 1,9 Länsilounas   1027,4 69 - -
00:38 8,4 3,0   Tyyntä   1027,4 69 - -
00:44 8,4 3,1   Tyyntä   1027,4 69 - -
00:49 8,5 3,1   Tyyntä   1027,4 69 - -
00:53 8,4 3,1   Tyyntä   1027,4 69 - -
00:59 8,4 2,9   Tyyntä   1027,4 68 - -
01:03 8,4 2,8   Tyyntä   1027,4 68 - -
01:09 8,3 2,9   Tyyntä   1027,4 69 - -
01:14 8,2 2,9   Tyyntä   1027,5 69 - -
01:18 8,1 2,9   Tyyntä   1027,5 70 - -
01:24 7,8 2,9   Tyyntä   1027,5 71 - -
01:29 7,7 2,7   Tyyntä   1027,6 71 - -
01:33 7,5 2,8   Tyyntä   1027,5 72 - -
01:38 7,3 2,6   Tyyntä   1027,6 72 - -
01:43 7,1 2,4   Tyyntä   1027,7 72 - -
01:48 7,0 2,5   Tyyntä   1027,7 73 - -
01:53 6,8 2,5   Tyyntä   1027,7 74 - -
01:59 6,8 2,4   Tyyntä   1027,7 74 - -
02:03 6,7 2,6   Tyyntä   1027,7 75 - -
02:08 6,6 2,4   Tyyntä   1027,8 75 - -
02:13 6,5 2,6   Tyyntä   1027,8 76 - -
02:18 6,3 2,6   Tyyntä   1027,9 77 - -
02:24 6,2 2,4   Tyyntä   1027,8 77 - -
02:28 6,1 2,5   Tyyntä   1027,8 78 - -
02:33 5,9 2,4   Tyyntä   1027,8 78 - -
02:39 5,8 2,3   Tyyntä   1027,8 78 - -
02:43 5,8 2,2   Tyyntä   1027,8 78 - -
02:49 5,7 2,3   Tyyntä   1027,8 79 - -
02:54 5,5 2,2   Tyyntä   1027,8 79 - -
02:58 5,4 2,1   Tyyntä   1027,9 79 - -
03:04 5,2 2,0   Tyyntä   1027,9 80 - -
03:08 5,0 1,8   Tyyntä   1027,9 80 - -
03:14 4,8 1,8   Tyyntä   1027,9 81 - -
03:19 4,6 1,6   Tyyntä   1027,9 81 - -
03:23 4,4 1,6   Tyyntä   1027,9 82 - -
03:29 4,3 1,5   Tyyntä   1027,9 82 - -
03:34 4,1 1,5   Tyyntä   1027,9 83 - -
03:39 4,0 1,6   Tyyntä   1027,9 84 - -
03:44 3,8 1,4   Tyyntä   1028,0 84 - -
03:49 3,8 1,3   Tyyntä   1028,1 84 - -
03:53 3,7 1,3   Tyyntä   1028,0 84 - -
03:58 3,6 1,3   Tyyntä   1028,1 85 - -
04:03 3,4 1,2   Tyyntä   1028,1 85 - -
04:08 3,3 0,8   Tyyntä   1028,1 84 - -
04:14 3,2 0,9   Tyyntä   1028,2 85 - -
04:18 3,1 0,9   Tyyntä   1028,2 86 - -
04:23 3,0 0,9   Tyyntä   1028,2 86 - -
04:29 2,9 1,0   Tyyntä   1028,1 87 - -
04:33 2,9 0,9   Tyyntä   1028,1 87 - -
04:38 2,8 0,8   Tyyntä   1028,1 87 - -
04:43 2,7 0,8   Tyyntä   1028,2 87 - -
04:48 2,6 0,7   Tyyntä   1028,2 87 - -
04:54 2,4 0,5   Tyyntä   1028,3 87 - -
04:58 2,3 0,4   Tyyntä   1028,3 87 - -
05:04 2,2 0,4   Tyyntä   1028,3 88 - -
05:09 2,1 0,3   Tyyntä   1028,4 88 - -
05:13 2,1 0,3   Tyyntä   1028,5 88 - -
05:19 1,9 0,2   Tyyntä   1028,4 88 - -
05:23 1,9 0,3   Tyyntä   1028,4 89 - -
05:29 1,8 0,2   Tyyntä   1028,5 89 - -
05:34 1,7 0,1   Tyyntä   1028,5 89 - -
05:38 1,7 0,1   Tyyntä   1028,6 89 - 7
05:44 1,6 0,0   Tyyntä   1028,6 89 - 9
05:49 1,6 0,2   Tyyntä   1028,6 90 - 11
05:54 1,6 0,2   Tyyntä   1028,6 90 - 12
05:59 1,6 0,2   Tyyntä   1028,6 90 - 16
06:03 1,7 0,2   Tyyntä   1028,7 90 - 18
06:09 1,6 0,2   Tyyntä   1028,6 90 - 18
06:13 1,6 0,1   Tyyntä   1028,6 90 - 19
06:18 1,5 0,1   Tyyntä   1028,7 90 - 23
06:23 1,5 0,1   Tyyntä   1028,7 90 - 23
06:28 1,4 0,0   Tyyntä   1028,7 90 - 26
06:33 1,4 0,0   Tyyntä   1028,8 90 - 28
06:38 1,5 0,2   Tyyntä   1028,8 91 - 30
06:43 1,6 0,2   Tyyntä   1028,8 91 - 32
06:48 1,6 0,2   Tyyntä   1028,8 91 - 37
06:54 1,7 0,3   Tyyntä   1028,8 91 - 42
06:58 1,8 0,7   Tyyntä   1028,8 92 - 46
07:04 2,1 0,9   Tyyntä   1028,9 92 - 46
07:08 2,2 1,1   Tyyntä   1028,9 92 - 53
07:13 2,4 1,2   Tyyntä   1028,9 92 - 67
07:19 2,7 1,5   Tyyntä   1029,0 92 - 70
07:23 2,9 1,8   Tyyntä   1028,9 92 - 118
07:29 3,3 2,2   Tyyntä   1028,9 92 - 118
07:34 3,8 2,6   Tyyntä   1028,9 92 - 134
07:38 4,1 2,8   Tyyntä   1028,9 91 - 135
07:44 4,7 3,2   Tyyntä   1028,9 90 - 142
07:48 5,1 3,4   Tyyntä   1028,9 89 - 95
07:54 5,6 3,6   Tyyntä   1028,9 87 - 167
07:59 6,1 3,9   Tyyntä   1029,0 86 - 121
08:04 6,6 4,2   Tyyntä   1029,0 85 - 153
08:09 7,1 4,7   Tyyntä   1029,0 85 - 216
08:13 7,4 4,8   Tyyntä   1029,0 84 - 190
08:19 7,8 5,1   Tyyntä   1029,0 83 - 149
08:24 8,4 5,3   Tyyntä   1029,0 81 - 204
08:29 8,9 5,6   Tyyntä   1029,0 80 - 276
08:33 9,4 5,7   Tyyntä   1029,0 78 - 264
08:38 10,2 5,6   Tyyntä   1029,0 73 - 260
08:43 10,8 5,7   Tyyntä   1029,0 71 - 287
08:48 11,3 5,8   Tyyntä   1029,0 69 - 320
08:54 11,8 5,9 3,7 Länsilounas 1,9 1029,0 67 - 304
08:58 12,2 5,3   Tyyntä   1029,0 63 - 323
09:04 12,7 5,3 1,9 Länsilounas 0,6 1029,0 61 - 338
09:08 12,9 5,6   Tyyntä   1029,1 61 - 341
09:13 13,4 5,6 1,9 Länsilounas 1,0 1029,0 59 - 357
09:19 13,7 5,3 3,7 Länsilounas 1,1 1029,0 57 - 387
09:23 13,9 4,7 3,7 Länsilounas 1,9 1029,0 54 - 390
09:29 14,1 4,1 5,6 Länsilounas 1,9 1029,1 51 - 390
09:33 14,2 4,2 3,7 Länsilounas 1,4 1029,0 51 - 397
09:38 14,6 3,9 6,8 Länsilounas 1,8 1029,0 49 - 418
09:44 14,9 3,4 3,4 Länsilounas 1,1 1029,0 46 - 388
09:48 15,2 3,7 7,4 Länsilounas 3,4 1029,0 46 - 418
09:54 15,6 3,1 1,9 Länsilounas 0,2 1029,0 43 - 441
09:59 16,0 3,7 7,4 Länsilounas 1,6 1029,1 44 - 471
10:03 16,3 4,0 1,9 Länsilounas 0,2 1029,1 44 - 445
10:09 16,6 2,9 5,6 Länsilounas 3,5 1029,1 40 - 436
10:13 16,7 3,3 7,4 Länsilounas 0,8 1029,1 41 - 457
10:19 17,0 3,3 3,4 Länsilounas 1,0 1029,1 40 - 510
10:24 17,4 2,6 1,9 Länsilounas 0,6 1029,1 37 - 522
10:28 17,8 1,7 10,1 Etelä 5,0 1029,1 34 - 510
10:34 17,7 1,7 5,1 Länsi 1,8 1029,1 34 - 506
10:39 17,6 1,5 10,1 Lounas 7,1 1029,2 34 - 538
10:44 17,6 1,5 11,9 Lounas 7,2 1029,1 34 - 519
10:48 17,6 1,9 9,3 Lounas 3,5 1029,1 35 - 531
10:52 17,7 1,7 7,4 Etelälounas 4,2 1029,2 34 - 554
10:58 18,0 1,4 9,3 Etelälounas 1,6 1029,1 33 - 578
11:03 18,1 1,6 11,9 Lounas 9,5 1029,1 33 - 577
11:08 18,0 1,9 10,1 Etelälounas 4,7 1029,1 34 - 554
11:13 18,1 1,6 6,8 Länsilounas 3,9 1029,1 33 - 587
11:19 18,3 1,3 10,1 Etelälounas 3,7 1029,1 32 - 573
11:23 18,6 1,9 7,4 Lounas 2,9 1029,1 33 - 591
11:28 18,8 0,8 10,1 Etelälounas 4,8 1029,1 30 - 594
11:33 18,7 1,2 10,1 Länsilounas 3,1 1029,1 31 - 612
11:38 18,8 0,9 13,0 Etelälounas 5,6 1029,1 30 - 606
11:44 18,9 0,9 15,3 Länsilounas 8,8 1029,0 30 - 621
11:48 19,1 1,1 13,5 Lounas 6,9 1029,0 30 - 610

Download your copy of this data-set  here

Our weather-data as stored at Weather Underground. Alkuperäinen skripti Jim McMurry. Sovitettu myös templatelle Leuven-Template.eu